Change the Weather History Date:

Monday, July 15, 2013

  Actual Average Record
Temperature  
Mean Temperature 80 °F -  
Max Temperature 91 °F 84 °F 96 °F (2010)
Min Temperature 68 °F 64 °F 57 °F (2000)
Cooling Degree Days 14    
Growing Degree Days 30 (Base 50)    
Moisture  
Dew Point 66 °F    
Average Humidity 63    
Maximum Humidity 88    
Minimum Humidity 34    
Precipitation  
Precipitation 0.00 in 0.10 in - ()
Sea Level Pressure  
Sea Level Pressure 30.05 in    
Wind  
Wind Speed 4 mph ()    
Max Wind Speed 13 mph    
Max Gust Speed -    
Visibility 5.5 miles    
Events      
Averages and records for this station are not official NWS values.
T = Trace of Precipitation, MM = Missing Value Source: Averaged Metar Reports

Daily Weather History Graph

Daily Weather History Graph

Search for Another Location

Airport or City:

Trip Planner

Search our weather history database for the weather conditions in past years. The results will help you decide how hot, cold, wet, or windy it might be!

Date:

Astronomy

Jul. 15, 2013 Rise Set
Actual Time 5:42 AM CEST 9:01 PM CEST
Civil Twilight 5:06 AM CEST 9:37 PM CEST
Nautical Twilight 4:19 AM CEST 10:25 PM CEST
Astronomical Twilight 3:19 AM CEST 11:24 PM CEST
Moon 1:08 PM CEST (7/15) No Moon Set
Length of Visible Light 16h 31m
Length of Day
15h 19m
Waxing Crescent, 42% of the Moon is Illuminated
Jul 15
Waxing Crescent
Jul 16
First Quarter
Jul 22
Full
Jul 29
Last Quarter
Aug 6
New

Hourly Weather History & Observations

Time (CEST) Temp. Heat Index Dew Point Humidity Pressure Visibility Wind Dir Wind Speed Gust Speed Precip Events Conditions
12:15 AM 73.4 °F - 66.2 °F 78% 30.06 in - NNW 4.6 mph - N/A   Clear
12:45 AM 73.4 °F - 68.0 °F 83% 30.06 in - NNW 4.6 mph - N/A   Clear
1:15 AM 73.4 °F - 66.2 °F 78% 30.06 in - NNW 4.6 mph - N/A   Clear
2:00 AM 73 °F - 66 °F 73% 30.07 in 6 mi NNW 6.7 mph - -  
2:15 AM 73.4 °F - 66.2 °F 78% 30.06 in - NNW 3.5 mph - N/A   Clear
2:45 AM 73.4 °F - 66.2 °F 78% 30.06 in - NNW 3.5 mph - N/A   Clear
3:15 AM 71.6 °F - 66.2 °F 83% 30.06 in - NNW 2.3 mph - N/A   Clear
3:45 AM 71.6 °F - 66.2 °F 83% 30.06 in - NNW 4.6 mph - N/A   Clear
4:15 AM 71.6 °F - 66.2 °F 83% 30.06 in - NNW 5.8 mph - N/A   Clear
4:45 AM 69.8 °F - 66.2 °F 88% 30.06 in - NNW 5.8 mph - N/A   Clear
5:00 AM 70 °F - 66 °F 85% 30.07 in 6 mi NNW 11.2 mph - -  
5:15 AM 69.8 °F - 66.2 °F 88% 30.06 in - NNW 3.5 mph - N/A   Clear
5:45 AM 69.8 °F - 66.2 °F 88% 30.06 in - NNW 4.6 mph - N/A   Clear
6:15 AM 69.8 °F - 66.2 °F 88% 30.06 in - NNW 4.6 mph - N/A   Clear
6:45 AM 68.0 °F - 62.6 °F 83% 30.06 in - Calm Calm - N/A   Clear
7:15 AM 71.6 °F - 64.4 °F 78% 30.06 in - NNW 2.3 mph - N/A   Clear
7:45 AM 75.2 °F - 68.0 °F 78% 30.06 in - North 2.3 mph - N/A   Clear
8:00 AM 74 °F - 67 °F 74% 30.07 in 6 mi North 4.5 mph - -   Clear
8:15 AM 75.2 °F - 66.2 °F 73% 30.06 in 5.0 mi NNW 2.3 mph - N/A   Unknown
8:45 AM 77.0 °F - 68.0 °F 74% 30.06 in 4.3 mi Calm Calm - N/A   Unknown
9:15 AM 78.8 °F - 68.0 °F 69% 30.09 in 5.0 mi SSW 2.3 mph - N/A   Unknown
9:45 AM 80.6 °F 83.2 °F 68.0 °F 65% 30.09 in 5.0 mi SSE 4.6 mph - N/A   Unknown
10:15 AM 80.6 °F 83.2 °F 68.0 °F 65% 30.09 in 5.0 mi SE 5.8 mph - N/A   Unknown
10:45 AM 82.4 °F 85.4 °F 68.0 °F 62% 30.06 in 5.0 mi SSE 6.9 mph - N/A   Unknown
11:00 AM 82 °F - 68 °F 53% 30.08 in 5 mi SSE 13.4 mph - -   Mist
11:15 AM 82.4 °F 85.4 °F 68.0 °F 62% 30.06 in 5.0 mi ESE 5.8 mph - N/A   Unknown
11:45 AM 84.2 °F 86.6 °F 66.2 °F 55% 30.06 in 5.0 mi ESE 5.8 mph - N/A   Partly Cloudy
12:15 PM 86.0 °F 88.2 °F 66.2 °F 51% 30.06 in 5.0 mi SE 4.6 mph - N/A   Partly Cloudy
12:45 PM 86.0 °F 87.3 °F 64.4 °F 48% 30.06 in 6.2 mi SSW 6.9 mph - N/A   Scattered Clouds
1:15 PM 86.0 °F 88.2 °F 66.2 °F 51% 30.06 in 6.2 mi South 6.9 mph - N/A   Scattered Clouds
1:45 PM 87.8 °F 89.4 °F 64.4 °F 46% 30.06 in 6.2 mi South 2.3 mph - N/A   Scattered Clouds
2:00 PM 87 °F - 64 °F 36% 30.07 in 6 mi South 4.5 mph - -   Partly Cloudy
2:15 PM 87.8 °F 88.5 °F 62.6 °F 43% 30.06 in 6.2 mi SSW 2.3 mph - N/A   Scattered Clouds
2:45 PM 87.8 °F 89.4 °F 64.4 °F 46% 30.06 in 6.2 mi SSW 4.6 mph - N/A   Scattered Clouds
3:15 PM 87.8 °F 89.4 °F 64.4 °F 46% 30.06 in 6.2 mi West 3.5 mph - N/A   Scattered Clouds
3:45 PM 87.8 °F 89.4 °F 64.4 °F 46% 30.04 in 6.2 mi SSW 6.9 mph - N/A   Scattered Clouds
4:15 PM 89.6 °F 91.1 °F 64.4 °F 43% 30.04 in 6.2 mi SW 4.6 mph - N/A   Scattered Clouds
4:45 PM 89.6 °F 91.1 °F 64.4 °F 43% 30.01 in 6.2 mi SSW 8.1 mph - N/A   Partly Cloudy
5:00 PM 89 °F - 64 °F 34% 30.02 in 6 mi SSW 8.1 mph - -   Scattered Clouds
5:15 PM 89.6 °F 91.1 °F 64.4 °F 43% 30.01 in 6.2 mi SSW 3.5 mph - N/A   Partly Cloudy
5:45 PM 89.6 °F 91.1 °F 64.4 °F 43% 30.01 in 6.2 mi SW 5.8 mph - N/A   Partly Cloudy
6:15 PM 89.6 °F 91.1 °F 64.4 °F 43% 30.01 in - SW 3.5 mph - N/A   Clear
6:45 PM 89.6 °F 91.1 °F 64.4 °F 43% 30.01 in - SSW 4.6 mph - N/A   Clear
7:15 PM 89.6 °F 91.1 °F 64.4 °F 43% 30.01 in - SSW 3.5 mph - N/A   Clear
7:45 PM 87.8 °F 90.4 °F 66.2 °F 49% 30.01 in - SW 3.5 mph - N/A   Clear
8:00 PM 88 °F - 66 °F 38% 30.01 in 6 mi SW 6.7 mph - -  
8:15 PM 86.0 °F 88.2 °F 66.2 °F 51% 30.01 in - SW 3.5 mph - N/A   Clear
8:45 PM 86.0 °F 89.4 °F 68.0 °F 55% 30.01 in - SW 3.5 mph - N/A   Clear
9:15 PM 84.2 °F 87.3 °F 68.0 °F 58% 30.01 in 5.0 mi SW 1.2 mph - N/A   Unknown
9:45 PM 82.4 °F 86.3 °F 69.8 °F 66% 30.01 in 5.0 mi Calm Calm - N/A   Partly Cloudy
10:15 PM 80.6 °F 83.9 °F 69.8 °F 70% 30.04 in 5.0 mi East 2.3 mph - N/A   Partly Cloudy
10:45 PM 80.6 °F 83.9 °F 69.8 °F 70% 30.04 in 5.0 mi East 3.5 mph - N/A   Partly Cloudy
11:00 PM 81 °F - 69 °F 59% 30.05 in 5 mi East 3.5 mph - -   Mist
11:15 PM 78.8 °F - 66.2 °F 65% 30.06 in 5.0 mi ENE 6.9 mph - N/A   Unknown
11:45 PM 78.8 °F - 66.2 °F 65% 30.06 in 5.0 mi ENE 5.8 mph - N/A   Unknown